Cosmos 2034 Rocket - Orbit

View from above orbital plane
View from above orbital plane
View from above satellite
View from above satellite

Ground track
Ground track

The orbit data is extracted from the following two-line orbital elements,

1 20150U 89059B   13140.87650873  .00000104  00000-0  91859-4 0  7801
2 20150 082.9384 118.1639 0030373 117.4029 303.4963 13.75519028195771
Epoch (UTC): 20 May 2013 21:02:10
Eccentricity: 0.0030373
inclination: 82.9384°
perigee height: 957 km
apogee height: 1002 km
right ascension of ascending node: 118.1639°
argument of perigee: 117.4029°
revolutions per day: 13.75519028
mean anomaly at epoch: 303.4963°
orbit number at epoch: 19577

The dashed part of the orbit path shows where the satellite is in the earth's shadow,  

Developed and maintained by Chris Peat, Heavens-Above GmbH. Please read the updated FAQ before sending e-mail. Imprint. DLR